CZ-6A DEB, 54302

Orbit data source: Space-Track

CZ-6A DEB, 54302 is space debris in SSO originally from a launch on Fri, 11 Nov 2022 UTC launched from the Taiyaun Space Center, China (TSC). Debris objects in space refer to the collection of defunct objects orbiting the Earth. Examples of debris include non-operational satellites, rocket bodies, and fragments generated from explosions, collisions, or faulty payload assembly.

Loading next visibility...
Identifier
54302, 2022-151AV
Orbit
SSO
Country
Flag of CNCN / PRC
Related business
Manufacturer
SAST
Mission
Spacecraft
Bus & Motor
Unknown
Mass
Unknown
Launch date (UTC)
2022-11-11 (4 years ago)
Launch vehicle
Unknown
Launch site
Taiyaun Space Center, China (TSC)
Object type
Payload
Rocket body
Debris
Shape & HBR
Unknown shape, 0.1 m
Radar Cross Section
Small (<0.1 m²)

Expand to show TLE details & history
Last TLE update: 13 hours ago

TLE from 13 hours ago
0 CZ-6A DEB
1 54302U 22151AV  26207.29657501  .00006725  00000-0  10446-2 0  9994
2 54302  98.8826 329.1862 0097348  80.3341 280.8843 14.70272490196441
Epoch: 2026-07-26T07:07Z
TLE epoch observation values (Epoch: 2026-07-26T07:07:04.080Z)
Latitude
-0.00005°
Longitude
-81.57733°
Altitude
650.881 km
Speed
7.539 km/s
True Right ascension
21h 56m 44s
True Declination
0° 00' 00"
Sunlit
Object was in full shadow at epoch
Visualization orbit readout
Latitude
Unknown
Longitude
Unknown
Altitude
Unknown
Speed
Unknown
Apparent Right ascension
Unknown
Apparent Declination
Unknown
Sunlit
N/A
Visualization observer readout
Local Sidereal Time
09:24:48
Azimuth
Unknown
Elevation
Unknown
Doppler factor
Unknown
Orbital elements
Apogee altitude
725.787 km
Perigee altitude
588.81 km
Semi-major axis
7,035.435 km
Eccentricity
0.00973
Inclination
98.8826°
RAAN
329.1862°
Arg. of periapsis
80.3341°
True anomaly
279.78639°
Mean anomaly
280.8843°
Eccentric anomaly
280.33559°
Mean motion
3.67796 °/min
Orbital period
97.88 mins
BSTAR
0.0010446
Loading maneuver chart data...
Computing Atmospheric mass density...

Documentation

Showing up to 5 results
|